Location: Bakov nad Jizerou
(50.4784°N, 14.9394°E)
Time: 23:18:17
(UTC+00:00)

Cosmos 1452 Rocket - Pass Details

Date: 16 June 2021
Orbit: 768 x 774 km, 74.1° (Epoch: 23 July)

Event Time Altitude Azimuth Distance (km) Brightness Sun altitude
Rises 20:56:04 0° 218° (SW) 3,241 6.5 -11.1°
Reaches altitude 10° 20:58:30 10° 223° (SW) 2,317 5.8 -11.3°
Maximum altitude 21:03:38 53° 300° (WNW) 955 4.4 -11.7°
Drops below altitude 10° 21:08:48 10° 17° (NNE) 2,330 6.7 -12.1°
Sets 21:11:16 0° 22° (NNE) 3,260 7.4 -12.3°
